This is the latest recevied weather packets stored in our database for station/object DH8TOM-3. If no packets are shown the sender has not sent any weather packets the latest 1 day(s).
| Time | Temp. | Humidity | Pressure | Rain* | Wind** | Luminosity | Snow |
|---|---|---|---|---|---|---|---|
| 1778012646 | 18.33° C | 67% | 1004.9 hPa | 0 mm | 0.45 m/s, 169° | - | - |
| 1778012346 | 18.33° C | 67% | 1004.9 hPa | 0 mm | 0.45 m/s, 169° | - | - |
| 1778012044 | 18.33° C | 67% | 1004.7 hPa | 0 mm | 0.45 m/s, 168° | - | - |
| 1778011743 | 18.33° C | 67% | 1004.7 hPa | 0 mm | 0.45 m/s, 168° | - | - |
| 1778011442 | 18.33° C | 66% | 1004.6 hPa | 0 mm | 0.45 m/s, 176° | - | - |
| 1778011141 | 18.33° C | 66% | 1004.6 hPa | 0 mm | 0.45 m/s, 176° | - | - |
| 1778010840 | 18.33° C | 66% | 1004.2 hPa | 0 mm | 0.45 m/s, 173° | - | - |
| 1778010539 | 18.33° C | 66% | 1004.2 hPa | 0 mm | 0.45 m/s, 173° | - | - |
| 1778010238 | 18.89° C | 66% | 1004.4 hPa | 0 mm | 0.45 m/s, 163° | - | - |
| 1778009937 | 18.89° C | 66% | 1004.4 hPa | 0 mm | 0.45 m/s, 163° | - | - |
| 1778009636 | 18.89° C | 66% | 1004.6 hPa | 0 mm | 0.45 m/s, 167° | - | - |
| 1778009334 | 18.89° C | 66% | 1004.6 hPa | 0 mm | 0.45 m/s, 167° | - | - |
| 1778009034 | 18.89° C | 66% | 1004.7 hPa | 0 mm | 0.45 m/s, 163° | - | - |
| 1778008733 | 18.89° C | 66% | 1004.7 hPa | 0 mm | 0.45 m/s, 163° | - | - |
| 1778008432 | 18.89° C | 67% | 1004.7 hPa | 0 mm | 0.45 m/s, 161° | - | - |
| 1778008132 | 18.89° C | 67% | 1004.7 hPa | 0 mm | 0.45 m/s, 161° | - | - |
| 1778007831 | 18.89° C | 67% | 1004.8 hPa | 0 mm | 0.45 m/s, 166° | - | - |
| 1778007529 | 18.89° C | 67% | 1004.8 hPa | 0 mm | 0.45 m/s, 166° | - | - |
| 1778007228 | 19.44° C | 66% | 1004.9 hPa | 0 mm | 0.45 m/s, 174° | - | - |
| 1778006927 | 19.44° C | 66% | 1004.9 hPa | 0 mm | 0.45 m/s, 174° | - | - |
| 1778006626 | 19.44° C | 65% | 1004.9 hPa | 0 mm | 0.45 m/s, 167° | - | - |
| 1778006325 | 19.44° C | 65% | 1004.9 hPa | 0 mm | 0.45 m/s, 167° | - | - |
| 1778006024 | 19.44° C | 65% | 1004.9 hPa | 0 mm | 0.45 m/s, 173° | - | - |
| 1778005723 | 19.44° C | 65% | 1004.9 hPa | 0 mm | 0.45 m/s, 173° | - | - |
| 1778005422 | 19.44° C | 63% | 1005 hPa | 0 mm | 0.45 m/s, 174° | - | - |
* Rain latest hour (hover to see other rain measurements)
** Current wind speed in m/s (hover to see current wind gust speed)